Location: Владивосток
(43.1151°N, 131.8856°E)
Time: 14:20:01
(UTC+10:00)

LO-87 - Pass Details

Date: 02 July 2022
Orbit: 450 x 466 km, 97.4° (Epoch: 17 August)

Event Time Altitude Azimuth Distance (km) Brightness Sun altitude
Exits shadow 00:01:08 22° 68° (ENE) 1,057 ? -21.6°
Drops below altitude 10° 00:03:51 10° 17° (NNE) 1,621 ? -21.7°
Sets 00:06:12 0° 2° (N) 2,506 ? -21.9°
